Location: Broekland
(52.3610°N, 6.2005°E)
Time: 05:30:19
(UTC+00:00)

ACS3 Solar Sail - Visible Passes

Search period start: 18 January 2026 00:00
Search period end: 28 January 2026 00:00
Orbit: 897 x 980 km, 97.2° (Epoch: 17 January)

Date Brightness Start Highest point End Pass type
(mag) Time Alt. Az. Time Alt. Az. Time Alt. Az.
18 Jan 4.1 03:33:24 10° N 03:33:40 11° N 03:33:40 11° N visible
19 Jan 4.1 03:47:31 10° N 03:47:47 11° N 03:47:47 11° N visible
20 Jan 4.1 04:01:39 10° N 04:01:53 11° N 04:01:53 11° N visible
21 Jan 4.4 02:31:58 10° N 02:32:06 11° N 02:32:06 11° N visible
21 Jan 4.0 04:15:51 10° N 04:15:58 10° NNW 04:15:58 10° NNW visible
22 Jan 4.3 02:45:54 10° N 02:46:10 11° N 02:46:10 11° N visible
23 Jan 4.2 02:59:50 10° N 03:00:13 12° N 03:00:13 12° N visible
24 Jan 4.1 03:13:47 10° N 03:14:15 12° N 03:14:15 12° N visible
25 Jan 4.1 03:27:46 10° N 03:28:17 12° N 03:28:17 12° N visible
26 Jan 4.5 01:58:23 10° NNE 01:58:25 10° NNE 01:58:25 10° NNE visible
26 Jan 4.0 03:41:45 10° N 03:42:16 12° N 03:42:16 12° N visible
27 Jan 4.4 02:12:10 10° NNE 02:12:25 11° NNE 02:12:25 11° NNE visible
27 Jan 4.0 03:55:47 10° N 03:56:16 12° N 03:56:16 12° N visible
